TimeCST,TemperatureF,Dew PointF,Humidity,Sea Level PressureIn,VisibilityMPH,Wind Direction,Wind SpeedMPH,Gust SpeedMPH,PrecipitationIn,Events,Conditions,WindDirDegrees,DateUTC
12:53 AM,30.0,27.0,88,29.79,10.0,West,6.9,-,N/A,,Clear,270,2014-01-20 06:53:00
1:53 AM,30.0,27.0,88,29.81,10.0,West,8.1,-,N/A,,Clear,270,2014-01-20 07:53:00
2:53 AM,30.0,27.0,88,29.84,10.0,West,8.1,-,N/A,,Clear,280,2014-01-20 08:53:00
3:45 AM,30.9,28.0,89,29.83,10.0,West,9.2,-,N/A,,Overcast,270,2014-01-20 09:45:00
3:53 AM,30.0,27.0,88,29.85,10.0,West,9.2,-,N/A,,Overcast,260,2014-01-20 09:53:00
4:17 AM,30.9,28.0,89,29.83,10.0,West,8.1,-,N/A,,Overcast,270,2014-01-20 10:17:00
4:33 AM,30.9,28.0,89,29.83,10.0,West,8.1,-,N/A,,Overcast,270,2014-01-20 10:33:00
4:53 AM,30.9,28.0,89,29.86,10.0,West,8.1,-,N/A,,Overcast,270,2014-01-20 10:53:00
5:17 AM,28.9,26.1,89,29.83,10.0,West,8.1,-,N/A,,Partly Cloudy,260,2014-01-20 11:17:00
5:53 AM,28.9,27.0,92,29.86,10.0,West,5.8,-,N/A,,Scattered Clouds,270,2014-01-20 11:53:00
6:53 AM,28.0,26.1,92,29.88,10.0,West,9.2,-,N/A,,Clear,260,2014-01-20 12:53:00
7:53 AM,27.0,25.0,92,29.89,10.0,WNW,6.9,-,N/A,,Clear,290,2014-01-20 13:53:00
8:53 AM,27.0,25.0,92,29.91,10.0,WNW,4.6,-,N/A,,Clear,290,2014-01-20 14:53:00
9:53 AM,34.0,28.9,82,29.94,10.0,NW,13.8,-,N/A,,Clear,310,2014-01-20 15:53:00
10:53 AM,35.1,30.0,82,29.97,10.0,NW,13.8,-,N/A,,Mostly Cloudy,310,2014-01-20 16:53:00
11:53 AM,35.1,30.0,82,29.97,10.0,NNW,11.5,-,N/A,,Overcast,330,2014-01-20 17:53:00
12:07 PM,34.0,28.9,82,29.93,10.0,NNW,11.5,-,N/A,,Overcast,330,2014-01-20 18:07:00
12:53 PM,33.1,28.9,85,29.94,10.0,NW,6.9,-,N/A,,Overcast,310,2014-01-20 18:53:00
1:53 PM,34.0,28.0,79,29.92,10.0,NNW,3.5,-,N/A,,Overcast,340,2014-01-20 19:53:00
2:53 PM,33.1,28.9,85,29.93,1.8,NNE,4.6,-,0.00,Snow,Light Snow,20,2014-01-20 20:53:00
3:03 PM,32.0,30.0,92,29.90,2.0,NNE,4.6,-,0.00,Snow,Light Snow,20,2014-01-20 21:03:00
3:17 PM,32.0,30.0,92,29.90,1.5,NNE,5.8,-,0.00,Snow,Light Snow,20,2014-01-20 21:17:00
3:33 PM,32.0,30.0,92,29.90,0.8,NE,3.5,-,0.00,Snow,Light Snow,40,2014-01-20 21:33:00
3:53 PM,30.9,30.0,96,29.95,1.0,NNE,4.6,-,0.00,Snow,Light Snow,20,2014-01-20 21:53:00
4:19 PM,30.9,30.0,96,29.92,0.8,North,6.9,-,0.00,Snow,Light Snow,360,2014-01-20 22:19:00
4:26 PM,30.9,30.0,96,29.93,0.8,North,8.1,-,0.00,Snow,Light Snow,350,2014-01-20 22:26:00
4:36 PM,30.9,30.0,96,29.93,0.5,North,11.5,-,0.00,Fog-Snow,Snow,360,2014-01-20 22:36:00
4:53 PM,30.0,28.9,96,29.97,0.8,North,12.7,-,0.00,Snow,Light Snow,350,2014-01-20 22:53:00
5:08 PM,30.0,28.9,96,29.95,0.8,North,17.3,-,0.00,Snow,Light Snow,350,2014-01-20 23:08:00
5:20 PM,30.0,28.0,92,29.96,1.2,North,19.6,-,0.00,Snow,Light Snow,350,2014-01-20 23:20:00
5:48 PM,26.6,24.8,93,29.99,2.0,North,25.3,33.4,0.00,Snow,Light Snow,360,2014-01-20 23:48:00
5:53 PM,25.0,23.0,92,30.03,1.8,North,23.0,33.4,0.00,Snow,Light Snow,10,2014-01-20 23:53:00
6:00 PM,23.0,21.0,92,30.00,1.8,North,25.3,34.5,0.00,Snow,Light Snow,10,2014-01-21 00:00:00
6:07 PM,23.0,19.9,88,30.01,3.0,North,24.2,32.2,0.00,Snow,Light Snow,10,2014-01-21 00:07:00
6:38 PM,21.0,17.1,85,30.04,1.8,North,27.6,38.0,0.00,Snow,Light Snow,10,2014-01-21 00:38:00
6:53 PM,19.9,16.0,85,30.10,3.0,North,23.0,34.5,0.00,,Overcast,10,2014-01-21 00:53:00
7:09 PM,19.0,16.0,88,30.09,1.8,North,25.3,34.5,0.00,Snow,Light Snow,350,2014-01-21 01:09:00
7:18 PM,18.0,16.0,92,30.09,1.2,North,31.1,35.7,0.00,Snow,Light Snow,350,2014-01-21 01:18:00
7:53 PM,16.0,12.9,88,30.17,1.0,North,32.2,39.1,0.00,,Overcast,350,2014-01-21 01:53:00
8:33 PM,12.9,10.0,88,30.16,0.8,North,28.8,36.8,0.00,Snow,Light Snow,350,2014-01-21 02:33:00
8:53 PM,12.0,9.0,88,30.23,1.0,North,26.5,35.7,0.00,,Overcast,350,2014-01-21 02:53:00
9:10 PM,10.9,9.0,92,30.19,0.5,North,28.8,40.3,0.00,Fog,Light Freezing Fog,350,2014-01-21 03:10:00
9:24 PM,10.9,9.0,92,30.21,1.2,North,31.1,39.1,0.00,,Overcast,350,2014-01-21 03:24:00
9:34 PM,10.9,8.1,88,30.22,0.5,North,32.2,40.3,0.00,Fog,Light Freezing Fog,350,2014-01-21 03:34:00
9:53 PM,10.0,7.0,87,30.28,0.8,North,26.5,35.7,0.00,,Mist,350,2014-01-21 03:53:00
9:55 PM,10.0,7.0,87,30.23,1.0,North,24.2,34.5,N/A,,Overcast,350,2014-01-21 03:55:00
10:00 PM,10.0,6.1,84,30.24,0.8,North,32.2,40.3,N/A,,Overcast,350,2014-01-21 04:00:00
10:16 PM,9.0,5.0,84,30.25,0.5,North,34.5,42.6,N/A,Fog,Light Freezing Fog,350,2014-01-21 04:16:00
10:29 PM,9.0,5.0,84,30.26,0.8,NNW,26.5,40.3,N/A,,Overcast,340,2014-01-21 04:29:00
10:53 PM,8.1,3.9,83,30.32,1.0,North,27.6,36.8,N/A,,Overcast,350,2014-01-21 04:53:00
11:22 PM,7.0,3.0,84,30.29,0.8,North,29.9,34.5,N/A,,Overcast,350,2014-01-21 05:22:00
11:34 PM,6.1,1.9,83,30.30,1.5,North,31.1,38.0,N/A,,Overcast,350,2014-01-21 05:34:00
11:42 PM,6.1,1.9,83,30.30,2.0,North,26.5,38.0,N/A,,Overcast,350,2014-01-21 05:42:00
11:51 PM,6.8,1.4,79,30.30,4.0,North,27.6,-,N/A,,Haze,350,2014-01-21 05:51:00
11:52 PM,5.0,-0.0,80,30.35,3.0,North,27.6,-,N/A,,Haze,350,2014-01-21 05:52:00